Flag for U.S.A. Weather past 2 weeks in Richmond, Virginia, U.S.A.

Now
85 °F

Mostly cloudy.


Feels Like: 89 °F
Forecast: 73 / 89 °F
Wind: 5 mph from West

Location: Richmond International Airport

Current Time: Aug 21, 2014 at 8:47:51 PM

Latest Report: Aug 21, 2014 at 7:54 PM


Visibility: 10 mi

Pressure: 30.00 "Hg

Humidity: 59%

Dew point: 69 °F

Location of RichmondLocation

Historic Weather in Richmond — Graph

°F

Richmond temperature yesterday

Maximum temperature yesterday: 86 °F (at 1:54 PM)
Minimum temperature yesterday: 70 °F (at 5:54 AM)
Average temperature yesterday: 78 °F

Past Weeks' High & Low Weather Summary

 TemperatureHumidityPressure
High91 °F (Aug 21, 12:54 PM)94% (Aug 12, 9:54 PM)30.16 "Hg (Aug 12, 9:54 PM)
Low63 °F (Aug 11, 4:54 AM)29% (Aug 16, 4:54 PM)29.76 "Hg (Aug 13, 3:54 AM)
Average76 °F70%29.98 "Hg
* Reported Aug 6 7:54 PM — Aug 21 7:54 PM, Richmond, Weather by CustomWeather, © 2014

Note: Actual official high and low records may vary slightly from our data, if they occured in-between our weather recording intervals... More about our weather records

Advertising

Richmond weather history for previous 24 hours

 ConditionsComfort  
Time TempWeatherWind HumidityBarometerVisibility
7:54 PM
Aug 21
85 °FMostly cloudy.5 mph59%30.00 "Hg10 mi
6:54 PM87 °FMostly cloudy.7 mph51%30.00 "Hg10 mi
5:54 PM88 °FMostly cloudy.8 mph52%30.01 "Hg10 mi
4:54 PM89 °FMostly cloudy.6 mph52%30.01 "Hg9 mi
3:54 PM88 °FMore clouds than sun.5 mph52%30.01 "Hg10 mi
2:54 PM89 °FMore clouds than sun.No wind52%30.02 "Hg10 mi
1:54 PM88 °FMore clouds than sun.No wind52%30.03 "Hg10 mi
12:54 PM91 °FOvercast.3 mph50%30.03 "Hg10 mi
11:54 AM88 °FScattered clouds.5 mph57%30.05 "Hg10 mi
10:54 AM85 °FSunny.6 mph63%30.06 "Hg10 mi
9:54 AM82 °FSunny.No wind67%30.06 "Hg10 mi
8:54 AM78 °FPassing clouds.No wind79%30.06 "Hg7 mi
7:54 AM73 °FFog.No wind90%30.06 "Hg2 mi
6:54 AM71 °FPassing clouds.No wind90%30.03 "Hg10 mi
5:54 AM71 °FPassing clouds.No wind90%30.01 "Hg10 mi
4:54 AM71 °FPassing clouds.No wind90%30.01 "Hg10 mi
3:54 AM72 °FPassing clouds.5 mph91%30.00 "Hg10 mi
2:54 AM72 °FPassing clouds.3 mph91%29.99 "Hg10 mi
1:54 AM74 °FMostly cloudy.No wind85%30.00 "Hg10 mi
12:54 AM74 °FMostly cloudy.5 mph85%30.01 "Hg10 mi
11:54 PM
Aug 20
75 °FMostly cloudy.5 mph82%30.03 "Hg10 mi
10:54 PM76 °FPartly cloudy.No wind80%30.02 "Hg10 mi
9:54 PM76 °FPartly cloudy.7 mph80%29.99 "Hg10 mi
8:54 PM76 °FBroken clouds.6 mph80%29.99 "Hg10 mi
Weather by CustomWeather, © 2014

See weather overviewHow to use our weather pages